Starlink 32815

operational
NORAD ID: 62956 Int'l Des: 2025-029 Owner: SPXS Country: US Constellation: starlink
LEOCIRCULAR

About Starlink 32815

Description loading...

Live Position

Loading 3D Globe...

Upcoming Passes

Altitude History

Altitude vs Time

uPlot chart will show altitude changes over time

Two-Line Element Set

1 62956U 25029J 26035.14259971 .00029016 00000-0 98707-3 0 9992
2 62956 53.1603 25.9889 0001616 105.5186 254.5993 15.30228878 56225
Epoch: Feb 4, 2026 • Age: 5 hours

Current Status

Altitude 475.7 km
Velocity 7.63 km/s
Sub-Earth Point 28.67°N, 84.83°W
Launch Date Feb 11, 2025
Age 0.9 years
Type internet

Technical Details

Classification Payload
Mass 730.00 kg
Dry Mass 700.00 kg
Total Mass 730.00 kg
Length 0.30 m
Diameter 4.10 m
Span 29.00 m
Shape Box + pan
Manufacturer SPXS
Bus Type Starlink V2M
Phase Status In Orbit
Owner/State SPXS/US

Large Constellations

Loading constellations...